Location: Unspecified
(0.0000°N, 0.0000°E)
Time: 23:39:08
(UTC+02:00)

Cosmos 2219 - Visible Passes

Search period start: 23 August 2017 00:00
Search period end: 02 September 2017 00:00
Orbit: 832 x 862 km, 71.1° (Epoch: 23 August)

Date Brightness Start Highest point End Pass type
(mag) Time Alt. Az. Time Alt. Az. Time Alt. Az.
23 Aug 5.0 06:58:18 10° SSE 07:03:15 31° ESE 07:08:11 10° NE visible
24 Aug 5.1 06:44:54 10° SSE 06:49:47 30° ESE 06:54:41 10° NE visible
25 Aug 5.1 06:31:29 10° SSE 06:36:20 30° ESE 06:41:11 10° NE visible
26 Aug 5.1 06:18:05 10° SSE 06:22:52 29° ESE 06:27:40 10° NE visible
27 Aug 5.1 06:04:40 10° SSE 06:09:25 28° ESE 06:14:10 10° NE visible
28 Aug 5.1 05:51:16 10° SSE 05:55:57 27° ESE 06:00:39 10° NE visible
28 Aug 4.4 07:35:41 10° WSW 07:39:49 21° WNW 07:43:57 10° NNW visible
29 Aug 5.1 05:39:41 18° SE 05:42:30 26° ESE 05:47:08 10° NE visible
29 Aug 4.4 07:22:09 10° WSW 07:26:21 21° WNW 07:30:35 10° NNW visible
30 Aug 5.0 05:28:11 24° ESE 05:29:02 25° ESE 05:33:37 10° NE visible
30 Aug 4.3 07:10:13 16° WSW 07:12:54 22° WNW 07:17:12 10° NNW visible
31 Aug 5.2 05:16:33 23° E 05:16:33 23° E 05:20:06 10° NE visible
31 Aug 4.3 06:58:34 22° W 06:59:27 23° WNW 07:03:49 10° NNW visible
01 Sep 5.6 05:04:47 17° ENE 05:04:47 17° ENE 05:06:34 10° NE visible
01 Sep 4.4 06:46:48 23° WNW 06:46:48 23° WNW 06:50:26 10° NNW visible
